GW3707 Weather Reports


time (UTC)temp
C
wind
direction
speed
KPH
gust
KPH
rain 1hr
cm
rain 24hr
cm
rain mn
cm
humidity
%
barometer
mb
20260506044518 20 12 4.8 17.7 0.00 0.00 0.00 75 1010.3
20260506043518 21 302 4.8 16.1 0.00 0.00 0.00 75 1010.4
20260506042518 21 334 6.4 17.7 0.00 0.00 0.00 74 1010.2
20260506041518 21 334 8.0 20.9 0.00 0.00 0.00 74 1010.2
20260506040538 22 350 6.4 17.7 0.00 0.00 0.00 74 1010.1
20260506035518 22 32 6.4 17.7 0.00 0.00 0.00 73 1010.0
20260506034558 22 30 6.4 16.1 0.00 0.00 0.00 73 1009.6
20260506033518 22 41 6.4 12.9 0.00 0.00 0.00 73 1009.2
20260506032518 23 32 6.4 17.7 0.00 0.00 0.00 72 1009.0
20260506031518 23 42 3.2 12.9 0.00 0.00 0.00 72 1008.9
20260506030518 23 46 6.4 14.5 0.00 0.00 0.00 71 1008.6
20260506025518 23 38 8.0 17.7 0.00 0.00 0.00 73 1009.0
20260506024518 23 38 12.9 20.9 0.00 0.00 0.00 73 1008.4
20260506023518 23 335 4.8 14.5 0.00 0.00 0.00 73 1008.1
20260506022518 23 12 6.4 16.1 0.00 0.00 0.00 72 1008.0
20260506021518 24 299 6.4 17.7 0.00 0.00 0.00 71 1007.8
20260506020538 24 315 3.2 14.5 0.00 0.00 0.00 70 1007.5
20260506015517 25 302 6.4 14.5 0.00 0.00 0.00 70 1007.2
20260506014518 25 337 3.2 14.5 0.00 0.00 0.00 70 1006.9
20260506013538 25 40 6.4 16.1 0.00 0.00 0.00 69 1006.6
20260506012538 25 307 4.8 14.5 0.00 0.00 0.00 69 1006.6
20260506011518 26 303 4.8 14.5 0.00 0.00 0.00 68 1006.7
20260506010517 27 304 4.8 12.9 0.00 0.00 0.00 70 1006.4
20260506005538 27 60 0.0 12.9 0.00 0.00 0.00 78 1006.1
20260506004518 28 137 3.2 14.5 0.00 0.00 0.00 77 1005.9
20260506003518 28 125 1.6 16.1 0.00 0.00 0.00 76 1005.8
20260506002518 29 142 6.4 20.9 0.00 0.00 0.00 73 1005.8
20260506001538 30 140 4.8 16.1 0.00 0.00 0.00 71 1005.8
20260506000518 30 138 4.8 19.3 0.00 0.00 0.00 71 1005.7
20260505235517 30 137 4.8 16.1 0.00 0.00 0.00 71 1005.6
20260505234517 30 136 6.4 16.1 0.00 0.00 0.00 73 1005.6
20260505233518 30 139 6.4 19.3 0.00 0.00 0.00 71 1005.5
20260505232517 31 140 8.0 20.9 0.00 0.00 0.00 70 1005.4
20260505231517 31 130 4.8 16.1 0.00 0.00 0.00 69 1005.3
20260505230517 31 128 6.4 17.7 0.00 0.00 0.00 69 1005.3
20260505225538 32 124 6.4 16.1 0.00 0.00 0.00 66 1005.3
20260505224518 33 140 1.6 11.3 0.00 0.00 0.00 62 1005.2
20260505223517 33 160 0.0 8.0 0.00 0.00 0.00 57 1005.2
20260505222517 34 186 0.0 12.9 0.00 0.00 0.00 55 1005.0
20260505221517 35 135 1.6 9.7 0.00 0.00 0.00 54 1005.1
20260505220517 35 127 0.0 6.4 0.00 0.00 0.00 55 1005.0
20260505215517 35 151 0.0 8.0 0.00 0.00 0.00 56 1005.2
20260505214518 35 127 0.0 4.8 0.00 0.00 0.00 56 1005.3
20260505213517 35 132 0.0 9.7 0.00 0.00 0.00 56 1005.3
20260505212518 35 132 1.6 6.4 0.00 0.00 0.00 55 1005.3
20260505211517 35 113 0.0 9.7 0.00 0.00 0.00 55 1005.6
20260505210516 35 124 0.0 1.6 0.00 0.00 0.00 56 1005.7
20260505205517 34 110 0.0 6.4 0.00 0.00 0.00 59 1005.9
20260505204538 34 248 3.2 12.9 0.00 0.00 0.00 56 1005.8
20260505203537 34 192 1.6 11.3 0.00 0.00 0.00 56 1006.0
20260505202537 34 131 0.0 12.9 0.00 0.00 0.00 59 1006.2
20260505201518 34 120 0.0 4.8 0.00 0.00 0.00 59 1006.3
20260505200517 34 240 1.6 6.4 0.00 0.00 0.00 59 1006.3
20260505195517 33 272 0.0 11.3 0.00 0.00 0.00 60 1006.3
20260505194517 33 210 0.0 8.0 0.00 0.00 0.00 61 1006.4
20260505193537 33 238 1.6 12.9 0.00 0.00 0.00 60 1006.4
20260505192517 33 236 3.2 14.5 0.00 0.00 0.00 61 1006.6
20260505191517 33 239 1.6 9.7 0.00 0.00 0.00 60 1006.6
20260505190517 33 229 1.6 8.0 0.00 0.00 0.00 62 1006.7
20260505185517 32 293 1.6 12.9 0.00 0.00 0.00 64 1006.8
20260505184517 32 268 1.6 9.7 0.00 0.00 0.00 64 1006.9
20260505183517 32 260 1.6 9.7 0.00 0.00 0.00 66 1007.0
20260505182517 31 241 4.8 12.9 0.00 0.00 0.00 65 1007.0
20260505181517 31 265 1.6 12.9 0.00 0.00 0.00 67 1007.1
20260505180557 31 223 1.6 11.3 0.00 0.00 0.00 66 1007.1
20260505175517 31 261 3.2 11.3 0.00 0.00 0.00 69 1007.3
20260505174517 30 341 3.2 12.9 0.00 0.00 0.00 70 1007.2
20260505173517 29 49 1.6 12.9 0.00 0.00 0.00 71 1007.2
20260505172517 29 3 1.6 16.1 0.00 0.00 0.00 72 1007.2
20260505171517 28 135 3.2 17.7 0.00 0.00 0.00 71 1007.2
20260505170517 28 3 3.2 20.9 0.00 0.00 0.00 71 1007.3
20260505165517 29 103 1.6 11.3 0.00 0.00 0.00 71 1007.4
20260505164517 28 276 1.6 9.7 0.00 0.00 0.00 72 1007.3
20260505163517 28 26 1.6 11.3 0.00 0.00 0.00 73 1007.2
20260505162517 28 306 1.6 9.7 0.00 0.00 0.00 74 1007.2
20260505161517 27 307 1.6 12.9 0.00 0.00 0.00 76 1007.2
20260505160517 27 273 3.2 14.5 0.00 0.00 0.00 75 1007.2
20260505152517 26 233 3.2 19.3 0.00 0.00 0.00 78 1007.5
20260505151517 26 252 3.2 14.5 0.00 0.00 0.00 78 1007.5
20260505150517 25 164 1.6 12.9 0.00 0.00 0.00 81 1007.5
20260505140537 23 6 1.6 8.0 0.00 0.00 0.00 87 1007.1
20260505124517 21 180 0.0 1.6 0.00 0.00 0.00 94 1006.9
20260505123517 20 134 1.6 4.8 0.00 0.00 0.00 95 1006.8
20260505122537 20 142 1.6 6.4 0.00 0.00 0.00 96 1006.6
20260505121517 20 148 1.6 8.0 0.00 0.00 0.00 96 1006.5
20260505120517 20 143 1.6 8.0 0.00 0.00 0.00 96 1006.5
20260505115517 20 166 0.0 6.4 0.00 0.00 0.00 96 1006.4
20260505114557 19 148 1.6 8.0 0.00 0.00 0.00 96 1006.2
20260505113516 19 141 1.6 4.8 0.00 0.00 0.00 96 1006.3
20260505112537 19 127 0.0 3.2 0.00 0.00 0.00 96 1006.1
20260505111517 19 124 1.6 8.0 0.00 0.00 0.00 96 1006.1
20260505110537 19 0.0 3.2 0.00 0.00 0.00 95 1006.2
20260505101516 20 123 1.6 4.8 0.00 0.00 0.00 95 1006.0
20260505100517 20 134 1.6 14.5 0.00 0.00 0.00 95 1006.2
20260505095517 20 138 3.2 9.7 0.00 0.00 0.00 94 1006.1
20260505094516 20 149 3.2 12.9 0.00 0.00 0.00 94 1006.3
20260505093517 20 142 1.6 8.0 0.00 0.00 0.00 94 1006.3
20260505092517 20 135 3.2 9.7 0.00 0.00 0.00 94 1006.4
20260505091516 20 135 1.6 16.1 0.00 0.00 0.00 93 1006.5
20260505090517 20 133 3.2 14.5 0.00 0.00 0.00 93 1006.5
20260505085516 20 116 3.2 11.3 0.00 0.00 0.00 93 1006.6
20260505084517 20 158 1.6 14.5 0.00 0.00 0.00 93 1006.6
20260505083516 20 122 3.2 11.3 0.00 0.00 0.00 92 1006.5
20260505082517 20 113 4.8 19.3 0.00 0.00 0.00 92 1006.5
20260505081537 20 129 4.8 16.1 0.00 0.00 0.00 92 1006.6
20260505080516 21 153 6.4 19.3 0.00 0.00 0.00 92 1006.7
20260505075516 21 142 8.0 17.7 0.00 0.00 0.00 91 1006.7
20260505074516 21 133 6.4 16.1 0.00 0.00 0.00 91 1006.9
20260505073516 21 147 6.4 19.3 0.00 0.00 0.00 91 1007.0
20260505072617 21 140 6.4 19.3 0.00 0.00 0.00 90 1007.1
20260505071517 21 125 4.8 14.5 0.00 0.00 0.00 90 1007.3
20260505070516 21 144 4.8 16.1 0.00 0.00 0.00 90 1007.5
20260505065537 21 151 4.8 17.7 0.00 0.00 0.00 89 1007.6
20260505064516 21 139 3.2 16.1 0.00 0.00 0.00 88 1007.7
20260505063516 21 148 3.2 11.3 0.00 0.00 0.00 88 1007.9
20260505062516 21 149 4.8 11.3 0.00 0.00 0.00 87 1007.9
20260505061536 21 117 3.2 17.7 0.00 0.00 0.00 87 1008.0
20260505060536 21 222 1.6 16.1 0.00 0.00 0.00 86 1008.1
20260505055516 21 143 4.8 14.5 0.00 0.00 0.00 85 1007.9
20260505054516 22 149 4.8 17.7 0.00 0.00 0.00 85 1007.8
20260505053516 22 142 6.4 19.3 0.00 0.00 0.00 84 1007.8
20260505052516 22 141 6.4 22.5 0.00 0.00 0.00 84 1007.9
20260505051516 22 138 4.8 19.3 0.00 0.00 0.00 83 1008.0
20260505050516 22 122 3.2 17.7 0.00 0.00 0.00 83 1008.1